Flag for Mexico Weather past 2 weeks in Cozumel, Quintana Roo, Mexico

Now
86 °F

Scattered clouds.


Feels Like: 97 °F
Forecast: 81 / 90 °F
Wind: 5 mph from South

Location: Cozumel Civ / Mil

Current Time: Aug 27, 2015 at 3:26:37 PM

Latest Report: Aug 27, 2015 at 2:40 PM


Visibility: 8 mi

Pressure: 29.93 "Hg

Humidity: 75%

Dew point: 77 °F

Location of CozumelLocation

Historic Weather in Cozumel — Graph

°F

Cozumel temperature yesterday

Maximum temperature yesterday: 84 °F (at 12:46 PM)
Minimum temperature yesterday: 70 °F (at 3:45 AM)
Average temperature yesterday: 77 °F

Past Weeks' High & Low Weather Summary

 TemperatureHumidityPressure
High88 °F (Aug 16, 12:46 PM)100% (Aug 12, 10:51 PM)30.03 "Hg (Aug 12, 10:51 PM)
Low70 °F (Aug 15, 6:52 AM)62% (Aug 17, 1:50 PM)29.83 "Hg (Aug 25, 3:42 AM)
Average79 °F89%29.96 "Hg
* Reported Aug 12 2:45 PM — Aug 27 1:47 PM, Cozumel, Weather by CustomWeather, © 2015

Note: Actual official high and low records may vary slightly from our data, if they occured in-between our weather recording intervals... More about our weather records

Advertising

Cozumel weather history for previous 24 hours

 ConditionsComfort  
Time TempWeatherWind HumidityBarometerVisibility
1:47 PM
Thu, Aug 27
82 °FBroken clouds.No wind79%29.96 "Hg8 mi
12:43 PM81 °FThunderstorms. Partly sunny.8 mph89%29.98 "Hg3 mi
11:41 AM82 °FScattered clouds.No wind84%29.98 "Hg8 mi
9:40 AM82 °FScattered clouds.No wind79%30.01 "Hg8 mi
8:40 AM79 °FScattered clouds.No wind89%29.97 "Hg8 mi
7:40 AM72 °FScattered clouds.No wind100%29.95 "Hg8 mi
4:41 AM70 °FPassing clouds.No wind100%29.92 "Hg7 mi
3:43 AM70 °FPassing clouds.No wind100%29.97 "Hg7 mi
2:46 AM72 °FPassing clouds.No wind100%29.94 "Hg7 mi
1:50 AM72 °FPassing clouds.No wind100%29.95 "Hg7 mi
12:44 AM73 °FPassing clouds.No wind100%29.96 "Hg7 mi
11:47 PM
Wed, Aug 26
73 °FPassing clouds.No wind100%29.98 "Hg7 mi
9:52 PM75 °FPassing clouds.No wind100%30.01 "Hg7 mi
8:48 PM75 °FPassing clouds.No wind100%29.96 "Hg7 mi
7:56 PM77 °FPartly sunny.No wind94%29.93 "Hg7 mi
6:43 PM79 °FHigh level clouds.No wind89%29.92 "Hg8 mi
5:48 PM82 °FScattered clouds.No wind79%29.92 "Hg8 mi
4:50 PM84 °FScattered clouds.No wind79%29.92 "Hg8 mi
Weather by CustomWeather, © 2015

See weather overviewHow to use our weather pages